Date String (YYYY-MM-DD hh:mm:ss) UTC,Instrument flags,Ambient pressure (hPa),Sample flow (lpm),Bypass flow (lpm),Sample temperature (°C),Ambient temperature (°C),ASC tube jacket temperature (°C),LED temperature (°C),Box temperature (°C),Sample RH (%),Span deviation,Mass concentration (μg/m³),Mass concentration (μg/m³),Mass concentration (μg/m³)
DateTimeUTC,F1_M11,P_M11,Q1_M11,Q2_M11,T1_M11,T2_M11,T3_M11,T4_M11,T5_M11,U1_M11,ZSPAN_M11,X2_M11,X0_M11,X1_M11
2023-05-17 23:00:00,,0827.8,5.01,0.00,29.4,28.2,00.0,37.6,31.1,18.6,0000.0,0004.39,0009.71,0003.35
2023-05-17 23:01:00,,0827.8,4.99,0.00,29.4,28.2,00.0,37.6,31.2,18.5,0000.0,0004.39,0009.82,0003.35
2023-05-17 23:02:00,,0827.8,5.00,0.00,29.4,26.9,00.0,37.6,31.0,18.0,0000.0,0004.38,0009.84,0003.36
2023-05-17 23:03:00,,0827.7,5.01,0.00,29.3,25.8,00.0,37.5,30.8,17.7,0000.0,0004.37,0009.80,0003.36
2023-05-17 23:04:00,,0827.8,5.01,0.00,29.3,25.8,00.0,37.5,30.7,18.1,0000.0,0004.41,0009.75,0003.36
2023-05-17 23:05:00,,0827.8,5.00,0.00,29.2,26.1,00.0,37.5,30.7,18.6,0000.0,0004.37,0009.56,0003.36
2023-05-17 23:06:00,,0827.8,4.99,0.00,29.2,26.4,00.0,37.5,30.8,18.3,0000.0,0004.34,0008.95,0003.37
2023-05-17 23:07:00,,0827.8,5.00,0.00,29.2,26.7,00.0,37.5,30.8,17.5,0000.0,0004.27,0008.65,0003.38
2023-05-17 23:08:00,,0827.8,5.00,0.00,29.2,27.0,00.0,37.5,30.9,18.6,0000.0,0004.22,0008.46,0003.37
2023-05-17 23:09:00,,0827.8,5.00,0.00,29.3,27.3,00.0,37.5,30.9,19.1,0000.0,0004.19,0008.34,0003.37
2023-05-17 23:10:00,,0827.8,4.99,0.00,29.3,27.5,00.0,37.6,31.0,19.7,0000.0,0004.23,0008.40,0003.39
2023-05-17 23:11:00,,0827.8,4.99,0.00,29.3,27.7,00.0,37.6,31.0,19.1,0000.0,0004.28,0008.79,0003.40
2023-05-17 23:12:00,,0827.8,5.00,0.00,29.3,27.9,00.0,37.6,31.1,19.3,0000.0,0004.32,0009.25,0003.41
2023-05-17 23:13:00,,0827.8,5.01,0.00,29.4,28.0,00.0,37.6,31.1,19.8,0000.0,0004.36,0009.96,0003.42
2023-05-17 23:14:00,,0827.8,5.00,0.00,29.4,28.1,00.0,37.6,31.1,20.8,0000.0,0004.43,0010.23,0003.43
2023-05-17 23:15:00,,0827.8,4.99,0.00,29.4,28.3,00.0,37.7,31.2,20.6,0000.0,0004.46,0010.36,0003.44
2023-05-17 23:16:00,,0827.8,4.99,0.00,29.5,27.7,00.0,37.7,31.1,20.5,0000.0,0004.49,0010.35,0003.45
2023-05-17 23:17:00,,0827.8,5.00,0.00,29.4,26.2,00.0,37.6,30.9,19.7,0000.0,0004.54,0010.56,0003.47
2023-05-17 23:18:00,,0827.8,5.01,0.00,29.4,25.9,00.0,37.5,30.8,20.1,0000.0,0004.60,0010.82,0003.49
2023-05-17 23:19:00,,0827.8,5.01,0.00,29.3,26.1,00.0,37.5,30.7,20.3,0000.0,0004.64,0010.93,0003.50
2023-05-17 23:20:00,,0827.8,5.00,0.00,29.3,26.4,00.0,37.6,30.8,19.7,0000.0,0004.61,0010.87,0003.50
2023-05-17 23:21:00,,0827.8,4.99,0.00,29.3,26.7,00.0,37.6,30.9,20.1,0000.0,0004.59,0010.87,0003.51
2023-05-17 23:22:00,,0827.8,5.00,0.00,29.3,27.0,00.0,37.6,30.9,19.8,0000.0,0004.59,0010.88,0003.51
2023-05-17 23:23:00,,0827.8,5.02,0.00,29.3,27.3,00.0,37.6,31.0,20.3,0000.0,0004.55,0010.40,0003.50
2023-05-17 23:24:00,,0827.9,5.00,0.00,29.3,27.5,00.0,37.6,31.0,20.4,0000.0,0004.52,0009.60,0003.50
2023-05-17 23:25:00,,0828.0,4.98,0.00,29.3,27.7,00.0,37.6,31.1,20.1,0000.0,0004.48,0009.58,0003.51
2023-05-17 23:26:00,,0827.9,5.01,0.00,29.4,27.9,00.0,37.6,31.1,19.7,0000.0,0004.50,0009.62,0003.52
2023-05-17 23:27:00,,0827.9,5.00,0.00,29.4,28.1,00.0,37.7,31.1,19.7,0000.0,0004.53,0010.56,0003.52
2023-05-17 23:28:00,,0827.9,5.00,0.00,29.4,28.2,00.0,37.7,31.2,20.2,0000.0,0004.54,0011.06,0003.52
2023-05-17 23:29:00,,0827.9,4.99,0.00,29.5,28.3,00.0,37.7,31.2,20.9,0000.0,0004.58,0011.35,0003.53
2023-05-17 23:30:00,,0827.9,5.00,0.00,29.5,28.2,00.0,37.7,31.3,21.0,0000.0,0004.62,0011.73,0003.53
2023-05-17 23:31:00,,0827.8,5.00,0.00,29.5,26.6,00.0,37.7,31.0,21.2,0000.0,0004.69,0011.98,0003.54
2023-05-17 23:32:00,,0827.8,5.00,0.00,29.4,24.9,00.0,37.6,30.7,21.6,0000.0,0004.68,0011.97,0003.54
2023-05-17 23:33:00,,0827.8,5.00,0.00,29.3,24.8,00.0,37.5,30.6,21.7,0000.0,0004.68,0012.46,0003.54
2023-05-17 23:34:00,,0827.9,5.01,0.00,29.2,25.1,00.0,37.5,30.5,22.2,0000.0,0004.69,0012.28,0003.56
2023-05-17 23:35:00,,0827.9,5.00,0.00,29.1,25.5,00.0,37.5,30.5,22.9,0000.0,0004.71,0012.39,0003.56
2023-05-17 23:36:00,,0827.9,4.99,0.00,29.1,26.0,00.0,37.5,30.6,22.5,0000.0,0004.72,0012.50,0003.58
2023-05-17 23:37:00,,0828.0,5.00,0.00,29.1,26.4,00.0,37.5,30.7,22.2,0000.0,0004.71,0012.96,0003.58
2023-05-17 23:38:00,,0828.0,5.00,0.00,29.1,26.7,00.0,37.5,30.7,22.3,0000.0,0004.70,0012.32,0003.59
2023-05-17 23:39:00,,0828.0,4.99,0.00,29.2,27.0,00.0,37.5,30.8,21.9,0000.0,0004.69,0011.74,0003.59
2023-05-17 23:40:00,,0828.0,4.99,0.00,29.2,27.3,00.0,37.5,30.9,21.5,0000.0,0004.68,0011.92,0003.59
2023-05-17 23:41:00,,0828.0,5.00,0.00,29.2,27.5,00.0,37.5,30.9,21.3,0000.0,0004.64,0011.62,0003.60
2023-05-17 23:42:00,,0828.1,5.01,0.00,29.2,27.7,00.0,37.5,31.0,21.3,0000.0,0004.62,0011.44,0003.61
2023-05-17 23:43:00,,0828.0,5.01,0.00,29.3,27.9,00.0,37.5,31.0,21.2,0000.0,0004.67,0011.57,0003.62
2023-05-17 23:44:00,,0828.0,4.99,0.00,29.3,28.0,00.0,37.6,31.1,20.4,0000.0,0004.70,0011.12,0003.63
2023-05-17 23:45:00,,0828.0,4.99,0.00,29.3,28.1,00.0,37.6,31.1,20.2,0000.0,0004.70,0011.42,0003.62
2023-05-17 23:46:00,,0828.0,5.01,0.00,29.4,28.2,00.0,37.6,31.2,20.2,0000.0,0004.68,0011.30,0003.62
2023-05-17 23:47:00,,0828.0,5.01,0.00,29.4,28.3,00.0,37.6,31.2,19.9,0000.0,0004.72,0011.17,0003.61
2023-05-17 23:48:00,,0828.1,4.99,0.00,29.5,28.4,00.0,37.7,31.2,20.2,0000.0,0004.72,0010.61,0003.60
2023-05-17 23:49:00,,0828.0,5.00,0.00,29.5,28.4,00.0,37.7,31.3,20.4,0000.0,0004.73,0010.66,0003.60
2023-05-17 23:50:00,,0827.9,4.99,0.00,29.5,27.0,00.0,37.7,31.1,20.4,0000.0,0004.74,0010.64,0003.61
2023-05-17 23:51:00,,0827.8,5.00,0.00,29.4,25.9,00.0,37.6,30.9,20.9,0000.0,0004.75,0010.18,0003.60
2023-05-17 23:52:00,,0827.8,5.01,0.00,29.4,25.9,00.0,37.5,30.8,21.0,0000.0,0004.76,0010.07,0003.59
2023-05-17 23:53:00,,0827.8,5.01,0.00,29.3,26.1,00.0,37.6,30.8,21.5,0000.0,0004.76,0010.64,0003.59
2023-05-17 23:54:00,,0827.8,5.00,0.00,29.3,26.4,00.0,37.6,30.8,20.8,0000.0,0004.77,0010.79,0003.59
2023-05-17 23:55:00,,0827.8,5.01,0.00,29.3,26.7,00.0,37.6,30.9,20.2,0000.0,0004.74,0010.73,0003.58
2023-05-17 23:56:00,,0827.8,5.01,0.00,29.3,27.0,00.0,37.6,30.9,20.2,0000.0,0004.69,0010.79,0003.56
2023-05-17 23:57:00,,0827.8,5.00,0.00,29.3,27.3,00.0,37.6,31.0,19.7,0000.0,0004.71,0011.17,0003.54
2023-05-17 23:58:00,,0827.8,4.98,0.00,29.3,27.5,00.0,37.6,31.0,20.0,0000.0,0004.69,0011.79,0003.55
2023-05-17 23:59:00,,0827.8,5.00,0.00,29.4,27.7,00.0,37.6,31.1,20.3,0000.0,0004.69,0012.02,0003.56
